Time,TemperatureF,DewpointF,PressureIn,WindDirection,WindDirectionDegrees,WindSpeedMPH,WindSpeedGustMPH,Humidity,HourlyPrecipIn,Conditions,Clouds,dailyrainin,SoftwareType,DateUTC
2013-03-03 00:22:00,38.0,-99.9,-100.00,North,-999,-999.0,-999.0,-999,0.00,,,0.01,,2013-03-03 07:22:00,
2013-03-03 00:32:00,38.0,-99.9,-100.00,North,-999,-999.0,-999.0,-999,0.00,,,0.01,,2013-03-03 07:32:00,
2013-03-03 00:42:00,38.0,-99.9,-100.00,North,-999,-999.0,-999.0,-999,0.00,,,0.01,,2013-03-03 07:42:00,
2013-03-03 01:22:00,37.0,-99.9,-100.00,North,-999,-999.0,-999.0,-999,0.00,,,0.01,,2013-03-03 08:22:00,
2013-03-03 01:32:00,37.0,-99.9,-100.00,North,-999,-999.0,-999.0,-999,0.00,,,0.01,,2013-03-03 08:32:00,
2013-03-03 01:42:00,37.0,-99.9,-100.00,North,-999,-999.0,-999.0,-999,0.00,,,0.01,,2013-03-03 08:42:00,
2013-03-03 02:22:00,35.0,-99.9,-100.00,North,-999,-999.0,-999.0,-999,0.00,,,0.01,,2013-03-03 09:22:00,
2013-03-03 02:33:00,35.0,-99.9,-100.00,North,-999,-999.0,-999.0,-999,0.00,,,0.01,,2013-03-03 09:33:00,
2013-03-03 02:42:00,35.0,-99.9,-100.00,North,-999,-999.0,-999.0,-999,0.00,,,0.01,,2013-03-03 09:42:00,
2013-03-03 03:22:00,36.0,-99.9,-100.00,North,-999,-999.0,-999.0,-999,0.00,,,0.01,,2013-03-03 10:22:00,
2013-03-03 03:32:00,36.0,-99.9,-100.00,North,-999,-999.0,-999.0,-999,0.00,,,0.01,,2013-03-03 10:32:00,
2013-03-03 03:42:00,36.0,-99.9,-100.00,North,-999,-999.0,-999.0,-999,0.00,,,0.01,,2013-03-03 10:42:00,
2013-03-03 04:22:00,34.0,-99.9,-100.00,North,-999,-999.0,-999.0,-999,0.00,,,0.01,,2013-03-03 11:22:00,
2013-03-03 04:32:00,34.0,-99.9,-100.00,North,-999,-999.0,-999.0,-999,0.00,,,0.01,,2013-03-03 11:32:00,
2013-03-03 04:42:00,34.0,-99.9,-100.00,North,-999,-999.0,-999.0,-999,0.00,,,0.01,,2013-03-03 11:42:00,
2013-03-03 05:22:00,34.0,-99.9,-100.00,North,-999,-999.0,-999.0,-999,0.00,,,0.01,,2013-03-03 12:22:00,
2013-03-03 05:32:00,34.0,-99.9,-100.00,North,-999,-999.0,-999.0,-999,0.00,,,0.01,,2013-03-03 12:32:00,
2013-03-03 05:43:00,34.0,-99.9,-100.00,North,-999,-999.0,-999.0,-999,0.00,,,0.01,,2013-03-03 12:43:00,
2013-03-03 06:22:00,34.0,-99.9,-100.00,North,-999,-999.0,-999.0,-999,0.00,,,0.01,,2013-03-03 13:22:00,
2013-03-03 06:32:00,34.0,-99.9,-100.00,North,-999,-999.0,-999.0,-999,0.00,,,0.01,,2013-03-03 13:32:00,
2013-03-03 06:42:00,34.0,-99.9,-100.00,North,-999,-999.0,-999.0,-999,0.00,,,0.01,,2013-03-03 13:42:00,
2013-03-03 07:22:00,34.0,-99.9,-100.00,North,-999,-999.0,-999.0,-999,0.00,,,0.01,,2013-03-03 14:22:00,
2013-03-03 07:32:00,34.0,-99.9,-100.00,North,-999,-999.0,-999.0,-999,0.00,,,0.01,,2013-03-03 14:32:00,
2013-03-03 07:42:00,34.0,-99.9,-100.00,North,-999,-999.0,-999.0,-999,0.00,,,0.01,,2013-03-03 14:42:00,
2013-03-03 08:22:00,34.0,-99.9,-100.00,North,-999,-999.0,-999.0,-999,0.01,,,0.02,,2013-03-03 15:22:00,
2013-03-03 08:33:00,34.0,-99.9,-100.00,North,-999,-999.0,-999.0,-999,0.01,,,0.02,,2013-03-03 15:33:00,
2013-03-03 08:42:00,34.0,-99.9,-100.00,North,-999,-999.0,-999.0,-999,0.01,,,0.02,,2013-03-03 15:42:00,
2013-03-03 09:22:00,34.0,-99.9,-100.00,North,-999,-999.0,-999.0,-999,0.00,,,0.02,,2013-03-03 16:22:00,
2013-03-03 09:32:00,34.0,-99.9,-100.00,North,-999,-999.0,-999.0,-999,0.00,,,0.02,,2013-03-03 16:32:00,
2013-03-03 09:42:00,34.0,-99.9,-100.00,North,-999,-999.0,-999.0,-999,0.00,,,0.02,,2013-03-03 16:42:00,
2013-03-03 10:22:00,34.0,-99.9,-100.00,North,-999,-999.0,-999.0,-999,0.00,,,0.02,,2013-03-03 17:22:00,
2013-03-03 10:32:00,34.0,-99.9,-100.00,North,-999,-999.0,-999.0,-999,0.00,,,0.02,,2013-03-03 17:32:00,
2013-03-03 10:42:00,34.0,-99.9,-100.00,North,-999,-999.0,-999.0,-999,0.00,,,0.02,,2013-03-03 17:42:00,
2013-03-03 11:22:00,34.0,-99.9,-100.00,North,-999,-999.0,-999.0,-999,0.00,,,0.02,,2013-03-03 18:22:00,
2013-03-03 11:32:00,34.0,-99.9,-100.00,North,-999,-999.0,-999.0,-999,0.00,,,0.02,,2013-03-03 18:32:00,
2013-03-03 11:42:00,34.0,-99.9,-100.00,North,-999,-999.0,-999.0,-999,0.00,,,0.02,,2013-03-03 18:42:00,
2013-03-03 12:22:00,33.0,-99.9,-100.00,North,-999,-999.0,-999.0,-999,0.02,,,0.04,,2013-03-03 19:22:00,
2013-03-03 12:32:00,33.0,-99.9,-100.00,North,-999,-999.0,-999.0,-999,0.02,,,0.04,,2013-03-03 19:32:00,
2013-03-03 12:43:00,33.0,-99.9,-100.00,North,-999,-999.0,-999.0,-999,0.02,,,0.04,,2013-03-03 19:43:00,
2013-03-03 13:22:00,34.0,-99.9,-100.00,North,-999,-999.0,-999.0,-999,0.00,,,0.03,,2013-03-03 20:22:00,
2013-03-03 13:32:00,34.0,-99.9,-100.00,North,-999,-999.0,-999.0,-999,0.00,,,0.03,,2013-03-03 20:32:00,
2013-03-03 13:43:00,34.0,-99.9,-100.00,North,-999,-999.0,-999.0,-999,0.00,,,0.03,,2013-03-03 20:43:00,
2013-03-03 14:22:00,35.0,-99.9,-100.00,North,-999,-999.0,-999.0,-999,0.00,,,0.04,,2013-03-03 21:22:00,
2013-03-03 14:32:00,35.0,-99.9,-100.00,North,-999,-999.0,-999.0,-999,0.00,,,0.04,,2013-03-03 21:32:00,
2013-03-03 14:42:00,35.0,-99.9,-100.00,North,-999,-999.0,-999.0,-999,0.00,,,0.04,,2013-03-03 21:42:00,
2013-03-03 15:22:00,36.0,-99.9,-100.00,North,-999,-999.0,-999.0,-999,0.02,,,0.05,,2013-03-03 22:22:00,
2013-03-03 15:32:00,36.0,-99.9,-100.00,North,-999,-999.0,-999.0,-999,0.02,,,0.05,,2013-03-03 22:32:00,
2013-03-03 15:42:00,36.0,-99.9,-100.00,North,-999,-999.0,-999.0,-999,0.02,,,0.05,,2013-03-03 22:42:00,
2013-03-03 16:22:00,35.0,-99.9,-100.00,North,-999,-999.0,-999.0,-999,0.01,,,0.06,,2013-03-03 23:22:00,
2013-03-03 16:32:00,35.0,-99.9,-100.00,North,-999,-999.0,-999.0,-999,0.01,,,0.06,,2013-03-03 23:32:00,
2013-03-03 16:42:00,35.0,-99.9,-100.00,North,-999,-999.0,-999.0,-999,0.01,,,0.06,,2013-03-03 23:42:00,
2013-03-03 17:22:00,34.0,-99.9,-100.00,North,-999,-999.0,-999.0,-999,0.02,,,0.08,,2013-03-04 00:22:00,
2013-03-03 17:32:00,34.0,-99.9,-100.00,North,-999,-999.0,-999.0,-999,0.02,,,0.08,,2013-03-04 00:32:00,
2013-03-03 17:42:00,34.0,-99.9,-100.00,North,-999,-999.0,-999.0,-999,0.02,,,0.08,,2013-03-04 00:42:00,
2013-03-03 18:22:00,33.0,-99.9,-100.00,North,-999,-999.0,-999.0,-999,0.04,,,0.12,,2013-03-04 01:22:00,
2013-03-03 18:32:00,33.0,-99.9,-100.00,North,-999,-999.0,-999.0,-999,0.04,,,0.12,,2013-03-04 01:32:00,
2013-03-03 18:42:00,33.0,-99.9,-100.00,North,-999,-999.0,-999.0,-999,0.04,,,0.12,,2013-03-04 01:42:00,
2013-03-03 19:22:00,31.0,-99.9,-100.00,North,-999,-999.0,-999.0,-999,0.03,,,0.15,,2013-03-04 02:22:00,
2013-03-03 19:32:00,31.0,-99.9,-100.00,North,-999,-999.0,-999.0,-999,0.03,,,0.15,,2013-03-04 02:32:00,
2013-03-03 19:42:00,31.0,-99.9,-100.00,North,-999,-999.0,-999.0,-999,0.03,,,0.15,,2013-03-04 02:42:00,
2013-03-03 20:22:00,25.0,-99.9,-100.00,North,-999,-999.0,-999.0,-999,0.00,,,0.15,,2013-03-04 03:22:00,
2013-03-03 20:32:00,25.0,-99.9,-100.00,North,-999,-999.0,-999.0,-999,0.00,,,0.15,,2013-03-04 03:32:00,
2013-03-03 20:42:00,25.0,-99.9,-100.00,North,-999,-999.0,-999.0,-999,0.00,,,0.15,,2013-03-04 03:42:00,
2013-03-03 21:32:00,23.0,-99.9,-100.00,North,-999,-999.0,-999.0,-999,0.00,,,0.15,,2013-03-04 04:32:00,
2013-03-03 21:42:00,23.0,-99.9,-100.00,North,-999,-999.0,-999.0,-999,0.00,,,0.15,,2013-03-04 04:42:00,
2013-03-03 22:22:00,21.0,-99.9,-100.00,North,-999,-999.0,-999.0,-999,0.00,,,0.15,,2013-03-04 05:22:00,
2013-03-03 22:32:00,21.0,-99.9,-100.00,North,-999,-999.0,-999.0,-999,0.00,,,0.15,,2013-03-04 05:32:00,
2013-03-03 22:43:00,21.0,-99.9,-100.00,North,-999,-999.0,-999.0,-999,0.00,,,0.15,,2013-03-04 05:43:00,
2013-03-03 23:22:00,21.0,-99.9,-100.00,North,-999,-999.0,-999.0,-999,0.00,,,0.15,,2013-03-04 06:22:00,
2013-03-03 23:32:00,21.0,-99.9,-100.00,North,-999,-999.0,-999.0,-999,0.00,,,0.15,,2013-03-04 06:32:00,
2013-03-03 23:42:00,21.0,-99.9,-100.00,North,-999,-999.0,-999.0,-999,0.00,,,0.15,,2013-03-04 06:42:00,